[[{"header":{"parameterUnit":"m.s-1","parameterCategory":1,"la1":30.2991,"la2":30.254,"lo1":-89.0895,"lo2":-89.0444,"dy":0.0017,"dx":0.0017,"nx":28,"ny":28,"refTime":"2026-02-08T09:00:00:Z","depth":0,"parameterNumber":2,"parameterNumberName":"U-component_of_WINDS"},"data":[0,0,0,0,0,0,0,0,0,0,0,0,0,0,0,0,0,0,0,0,0,0,0,0,0,0,0,0,0,0,0,0,0,0,0,0,0,0,0,0,0,0,0,0,0,0,0,0,0,0,0,0,0,0,0,0,0,0,0.5448,0.5449,0,0.5568,0.557,0.5571,0.5632,0.5632,0.5632,0.5632,0.5756,0.5759,0.5762,0,0,0,0,0,0,0,0,0,0,0,0,0,0.5271,0.5274,0.5447,0.5449,0.5451,0.5568,0.557,0.5571,0.5632,0.5632,0.5632,0.5632,0.5755,0.5759,0.5763,0,0,0,0,0,0,0,0,0,0,0,0,0,0.5365,0.5275,0.5447,0.5495,0.5501,0.5568,0.557,0.5572,0.5632,0.5632,0.5632,0.5632,0.5754,0.5758,0.5763,0.5792,0,0,0.5778,0.578,0,0,0,0,0,0,0,0,0.536,0.5372,0.5487,0.5492,0.5498,0.5585,0.5553,0.5646,0.5632,0.5582,0.5632,0.5632,0.5699,0.5709,0.5731,0.5798,0.5803,0.5779,0.5782,0.5784,0.5785,0,0,0,0,0,0,0,0.5353,0.5367,0.5495,0.5488,0.5495,0.5511,0.5524,0.5571,0.5639,0.5587,0.5591,0.5605,0.5702,0.5726,0.5734,0.5805,0.5779,0.5783,0.5786,0.5788,0.5904,0.5904,0,0,0,0,0,0,0.5339,0.5361,0.5492,0.5499,0.5428,0.5514,0.5529,0.5557,0.5639,0.5651,0.5605,0.5607,0.5718,0.5729,0.5739,0.5779,0.5784,0.5788,0.5791,0.5904,0.5904,0.5904,0,0,0,0,0,0,0.5335,0.535,0.5487,0.5431,0.545,0.5517,0.5548,0.556,0.5583,0.5652,0.5665,0.5616,0.5718,0.5732,0.5779,0.5784,0.579,0.5795,0.5904,0.5904,0.5904,0.5859,0,0,0,0,0,0,0.533,0.5348,0.5359,0.5431,0.5453,0.5524,0.5548,0.5562,0.5592,0.5596,0.5666,0.5678,0.5719,0.5771,0.5784,0.5791,0.5799,0.5903,0.5904,0.5904,0.586,0.5858,0.5855,0,0,0,0,0,0.5323,0.5341,0.5359,0.5375,0.5468,0.5524,0.5536,0.5583,0.5592,0.5604,0.5649,0.5676,0.5782,0.5776,0.579,0.5799,0.5903,0.5904,0.5904,0.5861,0.5858,0.5856,0,0,0,0,0,0,0.5268,0.5351,0.5373,0.5415,0.5462,0.5534,0.5551,0.5578,0.5624,0.5626,0.5683,0.5698,0.574,0.5775,0.5766,0.5833,0.5845,0.5849,0.5808,0.5806,0.5803,0.5794,0.5803,0,0,0,0,0,0.526,0.5299,0.537,0.54,0.5423,0.5483,0.5509,0.5541,0.5592,0.5612,0.566,0.5709,0.5754,0.5782,0.5826,0.5866,0.5883,0.588,0.5877,0.5875,0.5877,0.5902,0.5902,0.5905,0.5905,0.5905,0,0,0.5245,0.5296,0.5317,0.539,0.5431,0.547,0.5499,0.5538,0.5568,0.5619,0.5666,0.5703,0.5761,0.5805,0.5827,0.5835,0.588,0.5875,0.5873,0.5876,0.5902,0.5902,0.5902,0.5906,0.5906,0.5906,0,0,0.5238,0.528,0.5311,0.5351,0.5412,0.5452,0.5459,0.5528,0.5555,0.5603,0.5643,0.5679,0.5754,0.5795,0.5825,0.5836,0.5863,0.5849,0.5836,0.586,0.586,0.586,0.5864,0.5865,0.5851,0.5851,0.5851,0,0.5212,0.5272,0.5323,0.5361,0.5392,0.5441,0.5473,0.5509,0.5582,0.5603,0.5611,0.5708,0.5751,0.5805,0.5808,0.5831,0.5842,0.5841,0.5856,0.5856,0.5857,0.5862,0.5864,0.5849,0.5849,0.5849,0.5849,0,0.5237,0.5278,0.5295,0.5365,0.5399,0.5433,0.549,0.5519,0.5549,0.5588,0.5638,0.5691,0.5748,0.5764,0.5793,0.5823,0.5827,0.5845,0.5859,0.5854,0.5859,0.5862,0.5846,0.5846,0.5847,0.5848,0,0,0.5196,0.5295,0.53,0.5333,0.5405,0.5438,0.5476,0.5532,0.5556,0.5605,0.5639,0.5702,0.572,0.5754,0.5789,0.581,0.5817,0.5826,0.5828,0.5823,0.5855,0.584,0.5842,0.5836,0.5836,0.5837,0.585,0,0.5199,0.5268,0.5316,0.5367,0.5407,0.5454,0.5488,0.5536,0.5574,0.5614,0.5657,0.5701,0.5721,0.5742,0.5765,0.5811,0.5824,0.5811,0.5868,0.587,0.5852,0.5845,0.5829,0.5839,0.5852,0.5853,0.5853,0,0.5211,0.5259,0.5314,0.5384,0.5402,0.5431,0.5488,0.5525,0.5581,0.5608,0.5647,0.5684,0.5727,0.5738,0.5798,0.5788,0.5815,0.5842,0.5843,0.585,0.586,0.5851,0.5843,0.5844,0.5857,0.5857,0.5856,0,0.5176,0.5255,0.5299,0.5325,0.5408,0.5427,0.5462,0.5519,0.555,0.56,0.5621,0.5675,0.5705,0.5746,0.5796,0.58,0.5852,0.5867,0.5876,0.5875,0.5884,0.5883,0.588,0.5902,0.5902,0.5902,0.5901,0,0.5174,0.5206,0.5284,0.5311,0.5349,0.5404,0.544,0.548,0.553,0.5566,0.5611,0.5644,0.5708,0.5749,0.5789,0.5834,0.5847,0.587,0.588,0.5866,0.5863,0.5884,0.5885,0.5902,0.5902,0.5902,0.5902,0,0.5141,0.5194,0.5245,0.532,0.534,0.5364,0.5428,0.5457,0.5498,0.5543,0.5557,0.5623,0.5674,0.5729,0.5798,0.5825,0.5868,0.5882,0.5848,0.5854,0.586,0.5859,0.587,0.5875,0.5893,0.5893,0.5892,0,0.5135,0.5161,0.5239,0.5267,0.5301,0.5344,0.5377,0.5434,0.5466,0.5534,0.5554,0.5609,0.5655,0.5735,0.5789,0.5843,0.5859,0.586,0.5867,0.5853,0.586,0.5857,0.5861,0.5857,0.5856,0.5856,0.5855,0,0.5121,0.5147,0.5192,0.5247,0.5285,0.5332,0.538,0.54,0.5466,0.5501,0.5554,0.559,0.5662,0.5715,0.5776,0.5814,0.5846,0.5853,0.5858,0.5843,0.5823,0.5835,0.5841,0.5852,0.5852,0.5853,0.5853,0.5853,0.5101,0.5127,0.5187,0.5236,0.5279,0.5323,0.5354,0.5401,0.5446,0.5508,0.554,0.5593,0.5651,0.5736,0.5773,0.5816,0.5826,0.5833,0.5835,0.5836,0.5832,0.5816,0.5828,0.5828,0.5828,0.5828,0.5828,0,0.5089,0.513,0.5176,0.5242,0.5282,0.531,0.5365,0.5396,0.5442,0.5494,0.554,0.5602,0.5655,0.5714,0.5771,0.5795,0.5811,0.5808,0.5806,0.5815,0.582,0.581,0.5794,0.5794,0.5794,0.5794,0.5794,0.5794,0.5087,0.5133,0.5166,0.5234,0.5275,0.5328,0.5357,0.5399,0.5441,0.5508,0.5553,0.5591,0.5647,0.5709,0.576,0.5776,0.5795,0.5788,0.5808,0.5811,0.5814,0.5817,0.5808,0.5791,0.5791,0.58,0.58,0.58]},{"header":{"parameterUnit":"m.s-1","parameterCategory":1,"la1":30.2991,"la2":30.254,"lo1":-89.0895,"lo2":-89.0444,"dy":0.0017,"dx":0.0017,"nx":28,"ny":28,"refTime":"2026-02-08T09:00:00:Z","depth":0,"parameterNumber":3,"parameterNumberName":"V-component_of_WINDS"},"data":[0,0,0,0,0,0,0,0,0,0,0,0,0,0,0,0,0,0,0,0,0,0,0,0,0,0,0,0,0,0,0,0,0,0,0,0,0,0,0,0,0,0,0,0,0,0,0,0,0,0,0,0,0,0,0,0,0,0,1.5667,1.5667,0,1.5656,1.5656,1.5656,1.564,1.564,1.5639,1.5639,1.5627,1.5627,1.5627,0,0,0,0,0,0,0,0,0,0,0,0,0,1.5675,1.5675,1.5667,1.5667,1.5667,1.5656,1.5656,1.5656,1.564,1.564,1.5639,1.5639,1.5627,1.5627,1.5627,0,0,0,0,0,0,0,0,0,0,0,0,0,1.5669,1.5675,1.5667,1.5658,1.5657,1.5656,1.5656,1.5656,1.564,1.564,1.5639,1.5639,1.5627,1.5627,1.5627,1.5634,0,0,1.5626,1.5626,0,0,0,0,0,0,0,0,1.5669,1.5668,1.5659,1.5659,1.5658,1.5649,1.5654,1.5648,1.564,1.5646,1.5639,1.5639,1.5634,1.5634,1.5632,1.5633,1.5633,1.5626,1.5626,1.5626,1.5626,0,0,0,0,0,0,0,1.567,1.5669,1.5663,1.5659,1.5658,1.5654,1.5653,1.5653,1.5643,1.5646,1.5645,1.5644,1.5634,1.5632,1.5632,1.5632,1.5626,1.5626,1.5626,1.5626,1.5639,1.564,0,0,0,0,0,0,1.5672,1.5669,1.5663,1.5662,1.5662,1.5654,1.5653,1.5652,1.5643,1.5641,1.5644,1.5643,1.5633,1.5632,1.5631,1.564,1.5626,1.5626,1.5626,1.5639,1.5639,1.564,0,0,0,0,0,0,1.5672,1.5671,1.5664,1.5666,1.5664,1.5655,1.5654,1.5652,1.5651,1.5641,1.5639,1.5645,1.5633,1.5632,1.5633,1.5639,1.5626,1.5626,1.5638,1.5639,1.5639,1.5656,0,0,0,0,0,0,1.5672,1.5671,1.5674,1.5666,1.5664,1.5666,1.5654,1.5652,1.5651,1.5649,1.5641,1.564,1.5632,1.5634,1.5633,1.5639,1.5626,1.5638,1.5639,1.5639,1.5655,1.5658,1.5659,0,0,0,0,0,1.5672,1.5679,1.5674,1.5674,1.5667,1.5666,1.5666,1.5657,1.5651,1.5654,1.5648,1.564,1.5638,1.5634,1.5633,1.5639,1.5637,1.5638,1.5639,1.5654,1.5657,1.5659,0,0,0,0,0,0,1.5688,1.5678,1.5672,1.5676,1.5672,1.5664,1.5667,1.566,1.5658,1.5656,1.5646,1.5644,1.5647,1.5643,1.5638,1.5646,1.5637,1.5638,1.5648,1.5651,1.5653,1.5654,1.5626,0,0,0,0,0,1.5692,1.5692,1.5683,1.5687,1.5686,1.5677,1.5676,1.567,1.5665,1.5663,1.5657,1.5653,1.5652,1.5651,1.5649,1.5654,1.5653,1.5658,1.566,1.5662,1.5663,1.5666,1.5669,1.5643,1.5643,1.5643,0,0,1.57,1.5694,1.5695,1.569,1.5686,1.5687,1.5675,1.5676,1.5676,1.5663,1.5665,1.566,1.5655,1.5659,1.566,1.5655,1.567,1.5663,1.5664,1.5665,1.5667,1.567,1.5672,1.5644,1.5643,1.5643,0,0,1.5715,1.571,1.5714,1.571,1.5705,1.5699,1.57,1.5692,1.5689,1.569,1.5681,1.5681,1.5679,1.5675,1.5673,1.5687,1.568,1.5687,1.5698,1.5702,1.5704,1.5705,1.5711,1.5713,1.5688,1.5688,1.5688,0,1.5725,1.5726,1.5717,1.5718,1.5717,1.5705,1.5709,1.5706,1.57,1.5699,1.5694,1.5691,1.5687,1.569,1.5694,1.5692,1.5693,1.5688,1.5704,1.5706,1.5707,1.5713,1.5715,1.5689,1.5689,1.5689,1.5689,0,1.574,1.574,1.5744,1.5739,1.5738,1.574,1.5731,1.5731,1.5725,1.572,1.5722,1.5716,1.5713,1.5713,1.5707,1.5716,1.5713,1.5706,1.5697,1.5711,1.5716,1.5718,1.569,1.569,1.569,1.569,0,0,1.5765,1.5755,1.5756,1.5754,1.5747,1.5747,1.575,1.5747,1.5748,1.5744,1.5746,1.5744,1.5738,1.5736,1.5729,1.5732,1.5745,1.5724,1.5724,1.5729,1.5755,1.5761,1.5763,1.5739,1.574,1.574,1.5756,0,1.5779,1.5783,1.5774,1.578,1.5781,1.5769,1.5771,1.5767,1.5762,1.5762,1.5756,1.5756,1.5747,1.5746,1.5748,1.5743,1.575,1.5741,1.5742,1.5742,1.5744,1.5766,1.5772,1.5787,1.5757,1.5758,1.5758,0,1.5796,1.5794,1.58,1.5793,1.5793,1.5795,1.5793,1.5792,1.5788,1.5784,1.5782,1.5774,1.5776,1.5767,1.5769,1.5764,1.5763,1.576,1.5761,1.5761,1.5751,1.5768,1.5792,1.5794,1.5761,1.5761,1.576,0,1.5815,1.5813,1.5817,1.5815,1.5807,1.5809,1.5806,1.5801,1.58,1.5797,1.5797,1.5795,1.5794,1.5792,1.5784,1.5778,1.5788,1.5778,1.5785,1.5786,1.5789,1.5789,1.5814,1.5787,1.5787,1.5787,1.5787,0,1.5833,1.5837,1.5825,1.5828,1.5832,1.5822,1.5827,1.5823,1.5818,1.582,1.5809,1.5811,1.58,1.58,1.5794,1.5797,1.5797,1.5794,1.5792,1.5795,1.5796,1.5796,1.5795,1.5787,1.5787,1.5787,1.5787,0,1.5855,1.5847,1.585,1.5843,1.5841,1.5845,1.5838,1.584,1.5834,1.5836,1.5836,1.5827,1.5827,1.5818,1.5816,1.5812,1.5819,1.5815,1.582,1.582,1.5828,1.5828,1.5854,1.5858,1.5828,1.5828,1.5828,0,1.5867,1.587,1.5863,1.5863,1.5861,1.5861,1.586,1.5851,1.585,1.5846,1.5848,1.5847,1.5846,1.5846,1.584,1.5838,1.5835,1.5844,1.5834,1.5838,1.5836,1.5836,1.5837,1.5846,1.5847,1.5847,1.5847,0,1.589,1.5886,1.5885,1.5884,1.5883,1.5881,1.5879,1.5879,1.5869,1.5869,1.5869,1.5868,1.5866,1.5866,1.5863,1.586,1.5852,1.585,1.5852,1.5856,1.586,1.5859,1.5827,1.585,1.585,1.585,1.5849,1.5849,1.5908,1.5911,1.5906,1.5906,1.5903,1.5901,1.5903,1.5897,1.5897,1.5895,1.5889,1.589,1.5886,1.5882,1.5879,1.588,1.5875,1.5877,1.5878,1.5879,1.5881,1.5859,1.5879,1.5879,1.5879,1.5879,1.5879,0,1.5931,1.5928,1.5928,1.5925,1.5925,1.5917,1.5914,1.5915,1.5916,1.5912,1.5912,1.5912,1.5911,1.5905,1.5903,1.5905,1.5902,1.5905,1.5906,1.5905,1.5885,1.5884,1.5908,1.5908,1.5908,1.5908,1.5908,1.5908,1.5944,1.5948,1.5943,1.5946,1.5942,1.5944,1.5943,1.5941,1.5938,1.5939,1.5938,1.5934,1.5929,1.5928,1.5927,1.5925,1.5926,1.5931,1.5928,1.5909,1.5906,1.5904,1.5903,1.5931,1.5931,1.5948,1.5948,1.5948]}]]